User: anonymous   Login
Location: Clatteringshaws Loch
(55.0508°N, 4.2860°W)
Time: 14:31:48
(UTC+00:00)
Language:

Sapphire - Orbit

View from above orbital plane
View from above orbital plane
View from above satellite
View from above satellite

Ground track
Ground track

The orbit data is extracted from the following two-line orbital elements,

1 26932U 01043D   15063.04971783  .00000129  00000-0  81731-4 0  9990
2 26932 067.0551 089.5196 0008522 260.1640 099.8499 14.30112587700807
Epoch (UTC): 04 March 2015 01:11:35
Eccentricity: 0.0008522
inclination: 67.0551°
perigee height: 785 km
apogee height: 797 km
right ascension of ascending node: 89.5196°
argument of perigee: 260.1640°
revolutions per day: 14.30112587
mean anomaly at epoch: 99.8499°
orbit number at epoch: 70080

The dashed part of the orbit path shows where the satellite is in the earth's shadow,  

DLR